Time,TemperatureF,DewpointF,PressureIn,WindDirection,WindDirectionDegrees,WindSpeedMPH,WindSpeedGustMPH,Humidity,HourlyPrecipIn,Conditions,Clouds,dailyrainin,SoftwareType,DateUTC
2013-01-11 00:03:00,42.4,36.3,28.94,NW,315,0.0,0.0,78,0.00,,,0.00,WSDL version 420,2013-01-11 06:03:00,
2013-01-11 00:08:00,42.3,35.9,28.94,NW,315,0.0,0.0,78,0.00,,,0.00,WSDL version 420,2013-01-11 06:08:00,
2013-01-11 00:13:00,42.2,35.8,28.94,NW,315,0.0,0.0,78,0.00,,,0.00,WSDL version 420,2013-01-11 06:13:00,
2013-01-11 00:18:00,42.1,35.7,28.94,NW,315,0.0,0.0,78,0.00,,,0.00,WSDL version 420,2013-01-11 06:18:00,
2013-01-11 00:23:00,41.9,35.8,28.94,NW,315,0.0,0.0,79,0.00,,,0.00,WSDL version 420,2013-01-11 06:23:00,
2013-01-11 00:28:00,41.8,35.6,28.94,NW,315,0.0,0.0,78,0.00,,,0.00,WSDL version 420,2013-01-11 06:28:00,
2013-01-11 00:33:00,41.6,35.2,28.94,NW,315,0.0,0.0,77,0.00,,,0.00,WSDL version 420,2013-01-11 06:33:00,
2013-01-11 00:38:00,41.5,35.2,28.94,NW,315,0.0,0.0,78,0.00,,,0.00,WSDL version 420,2013-01-11 06:38:00,
2013-01-11 00:43:00,41.4,35.1,28.94,NW,315,0.0,0.0,78,0.00,,,0.00,WSDL version 420,2013-01-11 06:43:00,
2013-01-11 00:48:00,41.4,35.0,28.94,NW,315,0.0,0.0,78,0.00,,,0.00,WSDL version 420,2013-01-11 06:48:00,
2013-01-11 00:53:00,41.3,35.0,28.94,NW,315,0.0,0.0,78,0.00,,,0.00,WSDL version 420,2013-01-11 06:53:00,
2013-01-11 00:58:00,41.3,34.9,28.94,NW,315,0.0,0.0,78,0.00,,,0.00,WSDL version 420,2013-01-11 06:58:00,
2013-01-11 01:03:00,41.2,34.9,28.94,NW,315,0.0,0.0,78,0.00,,,0.00,WSDL version 420,2013-01-11 07:03:00,
2013-01-11 01:08:00,41.0,34.6,28.94,NW,315,0.0,0.0,77,0.00,,,0.00,WSDL version 420,2013-01-11 07:08:00,
2013-01-11 01:13:00,41.0,34.7,28.94,NW,315,0.0,0.0,78,0.00,,,0.00,WSDL version 420,2013-01-11 07:13:00,
2013-01-11 01:18:00,41.0,34.7,28.94,NW,315,0.0,0.0,78,0.00,,,0.00,WSDL version 420,2013-01-11 07:18:00,
2013-01-11 01:23:00,41.0,34.7,28.94,NW,315,0.0,0.0,79,0.00,,,0.00,WSDL version 420,2013-01-11 07:23:00,
2013-01-11 01:28:00,41.0,35.2,28.94,NW,315,0.0,0.0,80,0.00,,,0.00,WSDL version 420,2013-01-11 07:28:00,
2013-01-11 01:33:00,41.1,35.3,28.94,NW,315,0.0,0.0,79,0.00,,,0.00,WSDL version 420,2013-01-11 07:33:00,
2013-01-11 01:38:00,41.0,35.0,28.94,NW,315,0.0,0.0,79,0.00,,,0.00,WSDL version 420,2013-01-11 07:38:00,
2013-01-11 01:43:00,40.8,34.8,28.97,NW,315,0.0,0.0,78,0.00,,,0.00,WSDL version 420,2013-01-11 07:43:00,
2013-01-11 01:48:00,40.5,34.2,28.97,NW,315,0.0,0.0,78,0.00,,,0.00,WSDL version 420,2013-01-11 07:48:00,
2013-01-11 01:53:00,40.4,34.0,28.97,NW,315,0.0,0.0,78,0.00,,,0.00,WSDL version 420,2013-01-11 07:53:00,
2013-01-11 01:58:00,40.3,34.1,28.94,NW,315,0.0,0.0,79,0.00,,,0.00,WSDL version 420,2013-01-11 07:58:00,
2013-01-11 02:03:00,40.4,34.5,28.94,NW,315,0.0,0.0,80,0.00,,,0.00,WSDL version 420,2013-01-11 08:03:00,
2013-01-11 02:08:00,40.5,34.8,28.94,NW,315,0.0,0.0,80,0.00,,,0.00,WSDL version 420,2013-01-11 08:08:00,
2013-01-11 02:13:00,40.5,34.9,28.94,NW,315,0.3,1.1,80,0.00,,,0.00,WSDL version 420,2013-01-11 08:13:00,
2013-01-11 02:18:00,40.8,35.4,28.94,NW,315,0.0,1.1,81,0.00,,,0.00,WSDL version 420,2013-01-11 08:18:00,
2013-01-11 02:23:00,40.8,35.5,28.94,NW,315,0.0,0.0,81,0.00,,,0.00,WSDL version 420,2013-01-11 08:23:00,
2013-01-11 02:28:00,40.8,35.4,28.94,NW,315,0.0,0.0,81,0.00,,,0.00,WSDL version 420,2013-01-11 08:28:00,
2013-01-11 02:33:00,40.6,35.5,28.94,NW,315,0.0,1.1,82,0.00,,,0.00,WSDL version 420,2013-01-11 08:33:00,
2013-01-11 02:38:00,40.6,35.7,28.94,NW,315,0.0,1.1,82,0.00,,,0.00,WSDL version 420,2013-01-11 08:38:00,
2013-01-11 02:43:00,40.6,35.7,28.94,NW,315,0.0,0.9,82,0.00,,,0.00,WSDL version 420,2013-01-11 08:43:00,
2013-01-11 02:48:00,40.6,35.6,28.94,NW,315,0.0,0.0,81,0.00,,,0.00,WSDL version 420,2013-01-11 08:48:00,
2013-01-11 02:53:00,40.5,35.2,28.94,NW,315,0.0,0.0,81,0.00,,,0.00,WSDL version 420,2013-01-11 08:53:00,
2013-01-11 02:58:00,40.5,35.2,28.94,NW,315,0.0,0.0,81,0.00,,,0.00,WSDL version 420,2013-01-11 08:58:00,
2013-01-11 03:03:00,40.5,35.1,28.94,NW,315,0.0,0.0,80,0.00,,,0.00,WSDL version 420,2013-01-11 09:03:00,
2013-01-11 03:08:00,40.5,35.1,28.94,NW,315,0.0,0.0,81,0.00,,,0.00,WSDL version 420,2013-01-11 09:08:00,
2013-01-11 03:13:00,40.5,35.1,28.94,NW,315,0.0,0.0,81,0.00,,,0.00,WSDL version 420,2013-01-11 09:13:00,
2013-01-11 03:18:00,40.4,35.0,28.94,NW,315,0.0,0.0,80,0.00,,,0.00,WSDL version 420,2013-01-11 09:18:00,
2013-01-11 03:23:00,40.3,34.9,28.94,NW,315,0.0,0.0,81,0.00,,,0.00,WSDL version 420,2013-01-11 09:23:00,
2013-01-11 03:28:00,40.5,35.1,28.94,NW,315,0.0,0.0,81,0.00,,,0.00,WSDL version 420,2013-01-11 09:28:00,
2013-01-11 03:33:00,40.5,35.1,28.94,NW,315,0.0,0.0,81,0.00,,,0.00,WSDL version 420,2013-01-11 09:33:00,
2013-01-11 03:38:00,40.3,35.0,28.94,NW,315,0.0,0.0,81,0.00,,,0.00,WSDL version 420,2013-01-11 09:38:00,
2013-01-11 03:43:00,40.3,35.0,28.94,NW,315,0.0,0.0,81,0.00,,,0.00,WSDL version 420,2013-01-11 09:43:00,
2013-01-11 03:48:00,40.3,35.0,28.94,NW,315,0.0,0.0,81,0.00,,,0.00,WSDL version 420,2013-01-11 09:48:00,
2013-01-11 03:53:00,40.3,35.3,28.94,NW,315,0.0,0.0,82,0.00,,,0.00,WSDL version 420,2013-01-11 09:53:00,
2013-01-11 03:59:00,40.3,35.3,28.91,NW,315,0.0,0.0,82,0.00,,,0.00,WSDL version 420,2013-01-11 09:59:00,
2013-01-11 04:03:00,40.5,35.9,28.91,NW,315,0.0,0.0,84,0.00,,,0.00,WSDL version 420,2013-01-11 10:03:00,
2013-01-11 04:08:00,41.5,37.0,28.91,South,180,1.2,2.0,84,0.00,,,0.00,WSDL version 420,2013-01-11 10:08:00,
2013-01-11 04:13:00,42.7,38.8,28.91,South,180,1.0,2.0,87,0.00,,,0.00,WSDL version 420,2013-01-11 10:13:00,
2013-01-11 04:18:00,43.1,39.2,28.91,South,180,0.9,1.6,86,0.00,,,0.00,WSDL version 420,2013-01-11 10:18:00,
2013-01-11 04:23:00,43.5,39.5,28.91,South,180,0.3,1.3,86,0.00,,,0.00,WSDL version 420,2013-01-11 10:23:00,
2013-01-11 04:28:00,43.8,39.7,28.91,South,180,0.6,1.3,86,0.00,,,0.00,WSDL version 420,2013-01-11 10:28:00,
2013-01-11 04:33:00,44.1,40.0,28.91,South,180,0.6,1.3,86,0.00,,,0.00,WSDL version 420,2013-01-11 10:33:00,
2013-01-11 04:38:00,44.3,40.5,28.91,South,180,0.6,1.6,87,0.00,,,0.00,WSDL version 420,2013-01-11 10:38:00,
2013-01-11 04:43:00,44.3,40.3,28.91,South,180,0.3,1.6,87,0.00,,,0.00,WSDL version 420,2013-01-11 10:43:00,
2013-01-11 04:48:00,44.4,40.7,28.91,South,180,0.0,1.1,87,0.00,,,0.00,WSDL version 420,2013-01-11 10:48:00,
2013-01-11 04:53:00,44.4,40.7,28.91,South,180,0.0,0.0,87,0.00,,,0.00,WSDL version 420,2013-01-11 10:53:00,
2013-01-11 04:58:00,44.5,40.7,28.91,South,180,0.1,1.3,86,0.00,,,0.00,WSDL version 420,2013-01-11 10:58:00,
2013-01-11 05:03:00,44.5,40.7,28.91,SSW,203,0.9,1.6,86,0.00,,,0.00,WSDL version 420,2013-01-11 11:03:00,
2013-01-11 05:08:00,44.6,40.5,28.91,SSW,198,1.0,2.2,86,0.00,,,0.00,WSDL version 420,2013-01-11 11:08:00,
2013-01-11 05:13:00,45.0,41.1,28.88,SW,214,1.3,2.2,87,0.00,,,0.00,WSDL version 420,2013-01-11 11:13:00,
2013-01-11 05:18:00,45.4,41.4,28.88,SSW,203,1.5,2.2,86,0.00,,,0.00,WSDL version 420,2013-01-11 11:18:00,
2013-01-11 05:23:00,45.8,42.0,28.88,SW,218,1.2,2.0,87,0.00,,,0.00,WSDL version 420,2013-01-11 11:23:00,
2013-01-11 05:28:00,45.9,42.1,28.88,SSW,194,1.3,2.0,87,0.00,,,0.00,WSDL version 420,2013-01-11 11:28:00,
2013-01-11 05:33:00,45.9,42.2,28.88,SSW,203,1.5,2.2,87,0.00,,,0.00,WSDL version 420,2013-01-11 11:33:00,
2013-01-11 05:38:00,46.0,42.3,28.88,SSW,203,1.3,2.2,87,0.00,,,0.00,WSDL version 420,2013-01-11 11:38:00,
2013-01-11 05:43:00,46.0,42.3,28.88,SSW,203,1.6,2.5,87,0.00,,,0.00,WSDL version 420,2013-01-11 11:43:00,
2013-01-11 05:48:00,46.2,42.5,28.88,SSW,200,1.7,2.5,87,0.00,,,0.00,WSDL version 420,2013-01-11 11:48:00,
2013-01-11 05:53:00,46.3,42.7,28.88,South,190,1.4,2.2,87,0.00,,,0.00,WSDL version 420,2013-01-11 11:53:00,
2013-01-11 05:58:00,46.6,43.0,28.88,SSW,203,1.5,2.7,88,0.00,,,0.00,WSDL version 420,2013-01-11 11:58:00,
2013-01-11 06:03:00,46.8,43.2,28.88,SW,223,1.3,2.7,87,0.00,,,0.00,WSDL version 420,2013-01-11 12:03:00,
2013-01-11 06:08:00,46.9,43.2,28.88,SSE,158,1.0,2.5,87,0.00,,,0.00,WSDL version 420,2013-01-11 12:08:00,
2013-01-11 06:13:00,47.0,43.2,28.88,SSW,203,0.3,1.6,87,0.00,,,0.00,WSDL version 420,2013-01-11 12:13:00,
2013-01-11 06:18:00,47.2,43.5,28.88,SSW,203,0.4,1.6,87,0.00,,,0.00,WSDL version 420,2013-01-11 12:18:00,
2013-01-11 06:23:00,47.3,43.5,28.88,SSW,208,0.9,1.6,87,0.00,,,0.00,WSDL version 420,2013-01-11 12:23:00,
2013-01-11 06:28:00,47.5,43.8,28.88,SW,225,1.1,2.0,87,0.00,,,0.00,WSDL version 420,2013-01-11 12:28:00,
2013-01-11 06:33:00,47.8,44.2,28.88,WSW,248,1.0,2.0,88,0.00,,,0.00,WSDL version 420,2013-01-11 12:33:00,
2013-01-11 06:38:00,48.0,44.6,28.88,WSW,248,1.0,2.0,88,0.00,,,0.00,WSDL version 420,2013-01-11 12:38:00,
2013-01-11 06:43:00,48.2,44.8,28.91,WSW,248,0.5,1.3,88,0.00,,,0.00,WSDL version 420,2013-01-11 12:43:00,
2013-01-11 06:48:00,48.2,44.8,28.91,WSW,248,0.0,1.1,88,0.00,,,0.00,WSDL version 420,2013-01-11 12:48:00,
2013-01-11 06:53:00,48.4,45.3,28.91,WSW,248,0.0,1.1,89,0.00,,,0.00,WSDL version 420,2013-01-11 12:53:00,
2013-01-11 06:58:00,48.4,45.2,28.91,WSW,248,0.0,1.3,89,0.00,,,0.00,WSDL version 420,2013-01-11 12:58:00,
2013-01-11 07:03:00,48.5,45.4,28.91,WSW,248,1.0,1.3,90,0.00,,,0.00,WSDL version 420,2013-01-11 13:03:00,
2013-01-11 07:08:00,48.6,45.8,28.91,WSW,243,0.9,1.6,90,0.00,,,0.00,WSDL version 420,2013-01-11 13:08:00,
2013-01-11 07:13:00,48.7,45.9,28.88,WSW,248,1.1,1.6,90,0.00,,,0.00,WSDL version 420,2013-01-11 13:13:00,
2013-01-11 07:18:00,48.9,46.2,28.88,WSW,248,1.0,1.6,91,0.00,,,0.00,WSDL version 420,2013-01-11 13:18:00,
2013-01-11 07:23:00,49.0,46.5,28.88,WSW,248,0.5,1.6,91,0.00,,,0.00,WSDL version 420,2013-01-11 13:23:00,
2013-01-11 07:28:00,49.1,46.6,28.88,West,259,0.6,1.3,91,0.00,,,0.00,WSDL version 420,2013-01-11 13:28:00,
2013-01-11 07:33:00,49.2,46.8,28.88,SSW,203,0.3,1.3,91,0.00,,,0.00,WSDL version 420,2013-01-11 13:33:00,
2013-01-11 07:38:00,49.3,46.8,28.88,SSW,203,0.3,3.1,91,0.00,,,0.00,WSDL version 420,2013-01-11 13:38:00,
2013-01-11 07:43:00,49.3,46.8,28.88,WSW,248,1.1,3.1,91,0.00,,,0.00,WSDL version 420,2013-01-11 13:43:00,
2013-01-11 07:48:00,49.4,46.9,28.88,WSW,248,1.1,1.6,91,0.00,,,0.00,WSDL version 420,2013-01-11 13:48:00,
2013-01-11 07:53:00,49.5,47.4,28.88,SSW,198,1.3,2.0,92,0.00,,,0.00,WSDL version 420,2013-01-11 13:53:00,
2013-01-11 07:58:00,49.7,47.5,28.91,SSW,203,1.0,2.5,92,0.00,,,0.00,WSDL version 420,2013-01-11 13:58:00,
2013-01-11 08:03:00,49.9,47.8,28.91,South,188,1.1,2.5,92,0.00,,,0.00,WSDL version 420,2013-01-11 14:03:00,
2013-01-11 08:08:00,50.2,48.0,28.91,South,180,1.3,2.2,92,0.00,,,0.00,WSDL version 420,2013-01-11 14:08:00,
2013-01-11 08:13:00,50.2,48.1,28.91,SW,228,1.0,2.2,92,0.00,,,0.00,WSDL version 420,2013-01-11 14:13:00,
2013-01-11 08:18:00,50.4,48.2,28.91,WSW,248,1.1,2.2,92,0.00,,,0.00,WSDL version 420,2013-01-11 14:18:00,
2013-01-11 08:23:00,50.4,47.9,28.91,SSW,196,1.0,2.0,91,0.00,,,0.00,WSDL version 420,2013-01-11 14:23:00,
2013-01-11 08:28:00,50.4,47.9,28.91,SW,225,0.8,2.0,91,0.00,,,0.00,WSDL version 420,2013-01-11 14:28:00,
2013-01-11 08:33:00,50.3,47.8,28.91,SW,225,0.6,2.0,91,0.00,,,0.00,WSDL version 420,2013-01-11 14:33:00,
2013-01-11 08:38:00,50.2,47.4,28.91,SW,225,0.0,2.0,90,0.00,,,0.00,WSDL version 420,2013-01-11 14:38:00,
2013-01-11 08:43:00,50.4,47.5,28.88,SW,225,0.0,1.6,90,0.00,,,0.00,WSDL version 420,2013-01-11 14:43:00,
2013-01-11 08:48:00,50.5,47.7,28.88,SW,225,0.0,1.6,90,0.00,,,0.00,WSDL version 420,2013-01-11 14:48:00,
2013-01-11 08:53:00,51.0,48.4,28.88,SW,228,0.1,1.3,91,0.00,,,0.00,WSDL version 420,2013-01-11 14:53:00,
2013-01-11 08:58:00,51.8,49.3,28.91,WSW,248,0.4,1.3,91,0.00,,,0.00,WSDL version 420,2013-01-11 14:58:00,
2013-01-11 09:03:00,52.4,49.7,28.91,WSW,250,0.6,1.6,90,0.00,,,0.00,WSDL version 420,2013-01-11 15:03:00,
2013-01-11 09:08:00,52.7,49.7,28.91,WSW,248,0.0,1.6,89,0.00,,,0.00,WSDL version 420,2013-01-11 15:08:00,
2013-01-11 09:13:00,52.9,49.7,28.88,WSW,243,0.7,1.3,89,0.00,,,0.00,WSDL version 420,2013-01-11 15:13:00,
2013-01-11 09:18:00,53.3,49.8,28.88,WSW,248,0.0,1.3,88,0.00,,,0.00,WSDL version 420,2013-01-11 15:18:00,
2013-01-11 09:23:00,54.3,50.7,28.88,South,183,0.3,2.5,88,0.00,,,0.00,WSDL version 420,2013-01-11 15:23:00,
2013-01-11 09:28:00,54.7,50.8,28.91,SW,217,1.2,2.5,86,0.00,,,0.00,WSDL version 420,2013-01-11 15:28:00,
2013-01-11 09:33:00,54.8,50.6,28.91,South,188,1.3,2.2,86,0.00,,,0.00,WSDL version 420,2013-01-11 15:33:00,
2013-01-11 09:38:00,55.0,50.7,28.91,SSW,193,1.3,2.2,84,0.00,,,0.00,WSDL version 420,2013-01-11 15:38:00,
2013-01-11 09:43:00,55.9,51.2,28.91,SSW,208,0.9,2.2,83,0.00,,,0.00,WSDL version 420,2013-01-11 15:43:00,
2013-01-11 09:48:00,56.7,51.5,28.91,WSW,253,0.9,2.2,82,0.00,,,0.00,WSDL version 420,2013-01-11 15:48:00,
2013-01-11 09:53:00,56.6,51.0,28.91,South,169,1.1,2.2,81,0.00,,,0.00,WSDL version 420,2013-01-11 15:53:00,
2013-01-11 09:58:00,56.7,50.5,28.91,South,188,0.6,2.5,80,0.00,,,0.00,WSDL version 420,2013-01-11 15:58:00,
2013-01-11 10:03:00,57.5,51.0,28.91,WSW,238,1.2,2.5,79,0.00,,,0.00,WSDL version 420,2013-01-11 16:03:00,
2013-01-11 10:08:00,58.3,51.3,28.91,SSW,203,1.3,2.2,77,0.00,,,0.00,WSDL version 420,2013-01-11 16:08:00,
2013-01-11 10:13:00,58.7,51.1,28.88,ENE,59,0.4,2.5,75,0.00,,,0.00,WSDL version 420,2013-01-11 16:13:00,
2013-01-11 10:18:00,59.1,50.5,28.88,SSW,205,1.6,2.7,72,0.00,,,0.00,WSDL version 420,2013-01-11 16:18:00,
2013-01-11 10:23:00,59.3,50.0,28.88,SW,217,1.6,2.9,71,0.00,,,0.00,WSDL version 420,2013-01-11 16:23:00,
2013-01-11 10:28:00,60.4,50.6,28.91,SW,233,2.3,3.4,68,0.00,,,0.00,WSDL version 420,2013-01-11 16:28:00,
2013-01-11 10:33:00,61.5,50.4,28.91,South,190,1.6,6.3,67,0.00,,,0.00,WSDL version 420,2013-01-11 16:33:00,
2013-01-11 10:38:00,62.6,51.1,28.91,SW,215,2.4,6.3,64,0.00,,,0.00,WSDL version 420,2013-01-11 16:38:00,
2013-01-11 10:43:00,63.5,51.3,28.91,SW,223,2.5,4.3,64,0.00,,,0.00,WSDL version 420,2013-01-11 16:43:00,
2013-01-11 10:48:00,64.0,50.0,28.91,SSW,200,3.2,4.9,58,0.00,,,0.00,WSDL version 420,2013-01-11 16:48:00,
2013-01-11 10:53:00,64.1,49.2,28.91,South,191,2.7,4.9,59,0.00,,,0.00,WSDL version 420,2013-01-11 16:53:00,
2013-01-11 10:58:00,64.1,48.6,28.88,WSW,238,2.5,4.5,57,0.00,,,0.00,WSDL version 420,2013-01-11 16:58:00,
2013-01-11 11:03:00,63.6,48.1,28.88,WSW,245,2.3,4.0,57,0.00,,,0.00,WSDL version 420,2013-01-11 17:03:00,
2013-01-11 11:08:00,63.3,47.6,28.88,SW,233,1.8,3.8,57,0.00,,,0.00,WSDL version 420,2013-01-11 17:08:00,
2013-01-11 11:13:00,63.1,48.1,28.88,SW,218,1.0,3.8,58,0.00,,,0.00,WSDL version 420,2013-01-11 17:13:00,
2013-01-11 11:18:00,63.3,48.6,28.88,South,190,0.5,2.5,60,0.00,,,0.00,WSDL version 420,2013-01-11 17:18:00,
2013-01-11 11:23:00,64.3,49.4,28.88,South,180,2.4,3.6,57,0.00,,,0.00,WSDL version 420,2013-01-11 17:23:00,
2013-01-11 11:28:00,65.9,50.0,28.88,SSW,208,3.1,5.8,56,0.00,,,0.00,WSDL version 420,2013-01-11 17:28:00,
2013-01-11 11:33:00,66.0,48.4,28.88,SSW,195,3.0,5.8,52,0.00,,,0.00,WSDL version 420,2013-01-11 17:33:00,
2013-01-11 11:38:00,65.9,48.1,28.88,SW,225,3.5,6.0,53,0.00,,,0.00,WSDL version 420,2013-01-11 17:38:00,
2013-01-11 11:43:00,65.8,47.7,28.85,South,183,3.3,6.0,51,0.00,,,0.00,WSDL version 420,2013-01-11 17:43:00,
2013-01-11 11:48:00,66.7,48.3,28.85,SSW,208,3.4,6.5,51,0.00,,,0.00,WSDL version 420,2013-01-11 17:48:00,
2013-01-11 11:53:00,66.5,47.6,28.85,SW,236,3.4,6.5,50,0.00,,,0.00,WSDL version 420,2013-01-11 17:53:00,
2013-01-11 11:58:00,66.6,47.7,28.85,SW,218,3.0,5.8,51,0.00,,,0.00,WSDL version 420,2013-01-11 17:58:00,
2013-01-11 12:03:00,66.6,47.9,28.85,SSW,199,2.9,5.8,52,0.00,,,0.00,WSDL version 420,2013-01-11 18:03:00,
2013-01-11 12:08:00,67.0,48.8,28.85,WSW,253,2.1,5.6,51,0.00,,,0.00,WSDL version 420,2013-01-11 18:08:00,
2013-01-11 12:13:00,67.1,48.2,28.85,SSW,193,2.7,5.6,50,0.00,,,0.00,WSDL version 420,2013-01-11 18:13:00,
2013-01-11 12:18:00,68.0,49.3,28.85,SW,225,2.3,5.6,51,0.00,,,0.00,WSDL version 420,2013-01-11 18:18:00,
2013-01-11 12:23:00,68.3,48.5,28.85,SSW,203,2.7,4.0,49,0.00,,,0.00,WSDL version 420,2013-01-11 18:23:00,
2013-01-11 12:28:00,68.5,48.5,28.85,SW,214,3.0,4.5,48,0.00,,,0.00,WSDL version 420,2013-01-11 18:28:00,
2013-01-11 12:33:00,68.7,48.6,28.85,South,190,3.3,6.0,49,0.00,,,0.00,WSDL version 420,2013-01-11 18:33:00,
2013-01-11 12:38:00,68.6,49.2,28.85,West,259,2.4,6.0,50,0.00,,,0.00,WSDL version 420,2013-01-11 18:38:00,
2013-01-11 12:43:00,68.7,48.7,28.82,WSW,238,2.9,4.7,49,0.00,,,0.00,WSDL version 420,2013-01-11 18:43:00,
2013-01-11 12:48:00,69.4,49.6,28.82,SW,231,2.5,4.7,49,0.00,,,0.00,WSDL version 420,2013-01-11 18:48:00,
2013-01-11 12:53:00,69.9,49.4,28.82,South,185,3.0,4.9,48,0.00,,,0.00,WSDL version 420,2013-01-11 18:53:00,
2013-01-11 12:58:00,69.9,49.0,28.82,SW,219,3.1,5.4,48,0.00,,,0.00,WSDL version 420,2013-01-11 18:58:00,
2013-01-11 13:03:00,70.3,49.6,28.82,SSW,195,2.6,7.6,47,0.00,,,0.00,WSDL version 420,2013-01-11 19:03:00,
2013-01-11 13:08:00,70.2,49.3,28.82,SSW,205,3.2,7.6,47,0.00,,,0.00,WSDL version 420,2013-01-11 19:08:00,
2013-01-11 13:13:00,70.1,49.4,28.79,SW,228,3.0,6.3,48,0.00,,,0.00,WSDL version 420,2013-01-11 19:13:00,
2013-01-11 13:18:00,70.3,49.5,28.79,SW,231,3.6,6.3,47,0.00,,,0.00,WSDL version 420,2013-01-11 19:18:00,
2013-01-11 13:23:00,70.5,49.7,28.79,WSW,248,3.1,5.8,48,0.00,,,0.00,WSDL version 420,2013-01-11 19:23:00,
2013-01-11 13:28:00,70.7,50.0,28.82,SSW,210,2.8,4.5,48,0.00,,,0.00,WSDL version 420,2013-01-11 19:28:00,
2013-01-11 13:33:00,70.9,50.1,28.82,South,190,2.3,5.4,48,0.00,,,0.00,WSDL version 420,2013-01-11 19:33:00,
2013-01-11 13:38:00,71.3,50.0,28.82,SW,231,3.4,5.4,47,0.00,,,0.00,WSDL version 420,2013-01-11 19:38:00,
2013-01-11 13:43:00,71.4,50.3,28.82,SW,225,3.4,5.8,47,0.00,,,0.00,WSDL version 420,2013-01-11 19:43:00,
2013-01-11 13:48:00,71.5,50.1,28.82,SW,217,3.4,6.5,46,0.00,,,0.00,WSDL version 420,2013-01-11 19:48:00,
2013-01-11 13:53:00,71.7,50.1,28.82,SW,225,3.8,6.5,46,0.00,,,0.00,WSDL version 420,2013-01-11 19:53:00,
2013-01-11 13:58:00,71.4,50.2,28.82,SSW,208,3.3,5.8,47,0.00,,,0.00,WSDL version 420,2013-01-11 19:58:00,
2013-01-11 14:03:00,71.7,50.3,28.82,SSW,200,3.5,6.0,47,0.00,,,0.00,WSDL version 420,2013-01-11 20:03:00,
2013-01-11 14:08:00,72.2,50.4,28.82,SSW,198,3.8,6.0,46,0.00,,,0.00,WSDL version 420,2013-01-11 20:08:00,
2013-01-11 14:13:00,72.4,50.4,28.79,SSW,196,4.2,6.3,46,0.00,,,0.00,WSDL version 420,2013-01-11 20:13:00,
2013-01-11 14:18:00,71.9,50.1,28.79,South,185,3.8,6.3,47,0.00,,,0.00,WSDL version 420,2013-01-11 20:18:00,
2013-01-11 14:23:00,71.8,50.4,28.79,SSW,200,3.3,6.3,47,0.00,,,0.00,WSDL version 420,2013-01-11 20:23:00,
2013-01-11 14:28:00,71.7,50.5,28.79,SSW,210,3.2,6.3,47,0.00,,,0.00,WSDL version 420,2013-01-11 20:28:00,
2013-01-11 14:33:00,71.7,50.8,28.79,South,188,2.8,6.3,47,0.00,,,0.00,WSDL version 420,2013-01-11 20:33:00,
2013-01-11 14:38:00,71.8,51.1,28.79,SSW,203,2.7,5.4,48,0.00,,,0.00,WSDL version 420,2013-01-11 20:38:00,
2013-01-11 14:43:00,72.1,51.3,28.76,SW,222,3.0,4.7,48,0.00,,,0.00,WSDL version 420,2013-01-11 20:43:00,
2013-01-11 14:48:00,72.1,51.1,28.76,SSW,210,3.5,4.9,47,0.00,,,0.00,WSDL version 420,2013-01-11 20:48:00,
2013-01-11 14:53:00,72.9,51.9,28.76,South,178,3.1,4.9,48,0.00,,,0.00,WSDL version 420,2013-01-11 20:53:00,
2013-01-11 14:58:00,73.5,52.2,28.76,SSW,212,3.2,7.2,47,0.00,,,0.00,WSDL version 420,2013-01-11 20:58:00,
2013-01-11 15:03:00,73.9,52.0,28.76,WSW,240,3.2,7.2,46,0.00,,,0.00,WSDL version 420,2013-01-11 21:03:00,
2013-01-11 15:08:00,74.1,52.5,28.76,SW,222,2.8,6.9,47,0.00,,,0.00,WSDL version 420,2013-01-11 21:08:00,
2013-01-11 15:13:00,74.4,52.4,28.79,SW,218,3.0,5.6,47,0.00,,,0.00,WSDL version 420,2013-01-11 21:13:00,
2013-01-11 15:18:00,74.6,52.6,28.79,SW,228,3.7,5.6,46,0.00,,,0.00,WSDL version 420,2013-01-11 21:18:00,
2013-01-11 15:23:00,74.7,52.6,28.79,SSW,210,2.4,4.9,46,0.00,,,0.00,WSDL version 420,2013-01-11 21:23:00,
2013-01-11 15:28:00,74.8,52.4,28.76,SE,145,2.9,5.8,45,0.00,,,0.00,WSDL version 420,2013-01-11 21:28:00,
2013-01-11 15:33:00,74.8,52.4,28.76,SSW,211,2.6,5.8,46,0.00,,,0.00,WSDL version 420,2013-01-11 21:33:00,
2013-01-11 15:38:00,74.8,52.7,28.76,South,183,2.4,5.8,46,0.00,,,0.00,WSDL version 420,2013-01-11 21:38:00,
2013-01-11 15:43:00,74.9,52.8,28.79,SSW,200,2.4,4.9,46,0.00,,,0.00,WSDL version 420,2013-01-11 21:43:00,
2013-01-11 15:48:00,74.8,52.7,28.79,SSE,160,2.9,5.4,47,0.00,,,0.00,WSDL version 420,2013-01-11 21:48:00,
2013-01-11 15:53:00,74.3,52.8,28.79,South,174,3.9,7.6,47,0.00,,,0.00,WSDL version 420,2013-01-11 21:53:00,
2013-01-11 15:58:00,73.9,52.7,28.76,South,169,2.7,7.6,48,0.00,,,0.00,WSDL version 420,2013-01-11 21:58:00,
2013-01-11 16:03:00,73.3,52.5,28.76,SSW,194,3.2,6.5,49,0.00,,,0.00,WSDL version 420,2013-01-11 22:03:00,
2013-01-11 16:08:00,72.5,52.3,28.76,SSW,203,3.5,7.2,49,0.00,,,0.00,WSDL version 420,2013-01-11 22:08:00,
2013-01-11 16:13:00,71.8,52.1,28.76,South,185,3.2,7.2,50,0.00,,,0.00,WSDL version 420,2013-01-11 22:13:00,
2013-01-11 16:18:00,71.3,52.4,28.76,South,177,2.3,6.0,52,0.00,,,0.00,WSDL version 420,2013-01-11 22:18:00,
2013-01-11 16:23:00,70.8,52.5,28.76,SSE,158,2.8,6.9,53,0.00,,,0.00,WSDL version 420,2013-01-11 22:23:00,
2013-01-11 16:28:00,70.5,52.8,28.76,SSW,200,2.8,6.9,54,0.00,,,0.00,WSDL version 420,2013-01-11 22:28:00,
2013-01-11 16:33:00,70.2,53.1,28.76,South,188,3.0,6.0,55,0.00,,,0.00,WSDL version 420,2013-01-11 22:33:00,
2013-01-11 16:38:00,70.1,53.5,28.76,South,183,2.6,6.0,56,0.00,,,0.00,WSDL version 420,2013-01-11 22:38:00,
2013-01-11 16:43:00,69.8,53.6,28.76,South,174,2.3,4.3,57,0.00,,,0.00,WSDL version 420,2013-01-11 22:43:00,
2013-01-11 16:48:00,69.4,53.7,28.76,South,183,2.6,4.9,58,0.00,,,0.00,WSDL version 420,2013-01-11 22:48:00,
2013-01-11 16:53:00,69.2,54.0,28.76,SSW,194,2.6,4.9,58,0.00,,,0.00,WSDL version 420,2013-01-11 22:53:00,
2013-01-11 16:58:00,68.8,54.0,28.76,South,177,2.1,4.3,60,0.00,,,0.00,WSDL version 420,2013-01-11 22:58:00,
2013-01-11 17:03:00,68.5,54.1,28.76,SSE,148,1.9,4.3,61,0.00,,,0.00,WSDL version 420,2013-01-11 23:03:00,
2013-01-11 17:08:00,68.1,54.2,28.76,SSW,197,2.7,4.5,62,0.00,,,0.00,WSDL version 420,2013-01-11 23:08:00,
2013-01-11 17:13:00,67.8,54.3,28.76,NE,45,2.4,4.5,62,0.00,,,0.00,WSDL version 420,2013-01-11 23:13:00,
2013-01-11 17:18:00,67.6,54.5,28.76,South,172,1.8,4.0,63,0.00,,,0.00,WSDL version 420,2013-01-11 23:18:00,
2013-01-11 17:23:00,67.2,54.7,28.76,SSW,195,2.3,4.3,64,0.00,,,0.00,WSDL version 420,2013-01-11 23:23:00,
2013-01-11 17:28:00,67.1,54.7,28.79,South,172,2.5,4.3,65,0.00,,,0.00,WSDL version 420,2013-01-11 23:28:00,
2013-01-11 17:33:00,66.9,54.8,28.79,South,188,2.4,4.3,65,0.00,,,0.00,WSDL version 420,2013-01-11 23:33:00,
2013-01-11 17:38:00,66.7,54.9,28.79,South,180,2.8,4.3,66,0.00,,,0.00,WSDL version 420,2013-01-11 23:38:00,
2013-01-11 17:43:00,66.4,55.1,28.76,South,177,2.2,4.3,67,0.00,,,0.00,WSDL version 420,2013-01-11 23:43:00,
2013-01-11 17:48:00,66.2,54.9,28.76,SSE,168,1.8,3.8,67,0.00,,,0.00,WSDL version 420,2013-01-11 23:48:00,
2013-01-11 17:53:00,66.1,55.2,28.76,SSE,154,2.3,3.4,68,0.00,,,0.00,WSDL version 420,2013-01-11 23:53:00,
2013-01-11 17:58:00,66.0,55.4,28.76,South,175,2.1,4.0,69,0.00,,,0.00,WSDL version 420,2013-01-11 23:58:00,
2013-01-11 18:03:00,65.7,55.3,28.76,SSW,205,2.2,4.0,69,0.00,,,0.00,WSDL version 420,2013-01-12 00:03:00,
2013-01-11 18:08:00,65.5,55.1,28.76,SSE,168,2.3,3.4,70,0.00,,,0.00,WSDL version 420,2013-01-12 00:08:00,
2013-01-11 18:13:00,65.5,55.4,28.79,South,188,2.0,3.1,70,0.00,,,0.00,WSDL version 420,2013-01-12 00:13:00,
2013-01-11 18:18:00,65.2,55.3,28.79,South,183,2.1,4.0,71,0.00,,,0.00,WSDL version 420,2013-01-12 00:18:00,
2013-01-11 18:23:00,65.1,55.4,28.79,South,175,2.0,4.0,71,0.00,,,0.00,WSDL version 420,2013-01-12 00:23:00,
2013-01-11 18:28:00,65.0,55.4,28.79,South,177,1.4,3.1,71,0.00,,,0.00,WSDL version 420,2013-01-12 00:28:00,
2013-01-11 18:33:00,64.8,55.2,28.79,SSE,165,1.4,2.9,71,0.00,,,0.00,WSDL version 420,2013-01-12 00:33:00,
2013-01-11 18:38:00,64.6,55.0,28.79,South,183,1.0,2.9,71,0.00,,,0.00,WSDL version 420,2013-01-12 00:38:00,
2013-01-11 18:43:00,64.5,54.9,28.79,South,173,0.0,2.9,71,0.00,,,0.00,WSDL version 420,2013-01-12 00:43:00,
2013-01-11 18:48:00,64.3,54.9,28.79,SSW,209,0.0,2.0,72,0.00,,,0.00,WSDL version 420,2013-01-12 00:48:00,
2013-01-11 18:53:00,64.0,54.8,28.79,SW,225,0.0,1.3,72,0.00,,,0.00,WSDL version 420,2013-01-12 00:53:00,
2013-01-11 18:58:00,63.8,54.8,28.79,WSW,248,0.0,1.1,73,0.00,,,0.00,WSDL version 420,2013-01-12 00:58:00,
2013-01-11 19:03:00,63.5,54.7,28.79,WSW,248,0.0,0.0,73,0.00,,,0.00,WSDL version 420,2013-01-12 01:03:00,
2013-01-11 19:08:00,63.3,54.6,28.79,WSW,248,0.0,0.0,74,0.00,,,0.00,WSDL version 420,2013-01-12 01:08:00,
2013-01-11 19:13:00,63.1,54.5,28.79,WSW,248,0.0,0.0,73,0.00,,,0.00,WSDL version 420,2013-01-12 01:13:00,
2013-01-11 19:18:00,62.9,54.3,28.79,WSW,248,0.0,0.0,74,0.00,,,0.00,WSDL version 420,2013-01-12 01:18:00,
2013-01-11 19:23:00,62.7,54.2,28.79,West,260,0.1,1.3,73,0.00,,,0.00,WSDL version 420,2013-01-12 01:23:00,
2013-01-11 19:28:00,62.5,53.9,28.79,West,270,0.0,1.3,74,0.00,,,0.00,WSDL version 420,2013-01-12 01:28:00,
2013-01-11 19:33:00,62.3,53.8,28.79,West,270,0.0,0.9,73,0.00,,,0.00,WSDL version 420,2013-01-12 01:33:00,
2013-01-11 19:38:00,62.1,53.7,28.79,West,270,0.0,0.0,74,0.00,,,0.00,WSDL version 420,2013-01-12 01:38:00,
2013-01-11 19:43:00,61.8,53.7,28.79,West,270,0.0,0.0,75,0.00,,,0.00,WSDL version 420,2013-01-12 01:43:00,
2013-01-11 19:48:00,61.4,53.5,28.79,West,270,0.0,0.0,76,0.00,,,0.00,WSDL version 420,2013-01-12 01:48:00,
2013-01-11 19:53:00,61.0,53.4,28.79,West,270,0.0,0.0,76,0.00,,,0.00,WSDL version 420,2013-01-12 01:53:00,
2013-01-11 19:58:00,61.0,53.7,28.79,West,270,0.0,0.0,77,0.00,,,0.00,WSDL version 420,2013-01-12 01:58:00,
2013-01-11 20:03:00,60.9,53.4,28.79,West,270,0.0,0.0,76,0.00,,,0.00,WSDL version 420,2013-01-12 02:03:00,
2013-01-11 20:08:00,61.1,54.1,28.79,West,270,0.0,0.0,78,0.00,,,0.00,WSDL version 420,2013-01-12 02:08:00,
2013-01-11 20:13:00,61.2,54.3,28.79,West,270,0.0,0.0,78,0.00,,,0.00,WSDL version 420,2013-01-12 02:13:00,
2013-01-11 20:18:00,61.3,54.8,28.79,West,270,0.0,0.0,80,0.00,,,0.00,WSDL version 420,2013-01-12 02:18:00,
2013-01-11 20:23:00,61.5,55.2,28.79,West,270,0.0,0.0,79,0.00,,,0.00,WSDL version 420,2013-01-12 02:23:00,
2013-01-11 20:28:00,61.5,55.1,28.79,West,270,0.0,0.0,80,0.00,,,0.00,WSDL version 420,2013-01-12 02:28:00,
2013-01-11 20:33:00,61.5,55.2,28.79,West,270,0.0,0.0,79,0.00,,,0.00,WSDL version 420,2013-01-12 02:33:00,
2013-01-11 20:38:00,61.6,55.3,28.79,West,270,0.0,0.0,80,0.00,,,0.00,WSDL version 420,2013-01-12 02:38:00,
2013-01-11 20:43:00,61.7,55.5,28.79,WNW,293,0.0,0.0,81,0.00,,,0.00,WSDL version 420,2013-01-12 02:43:00,
2013-01-11 20:48:00,61.7,55.9,28.79,WNW,293,0.0,0.0,81,0.00,,,0.00,WSDL version 420,2013-01-12 02:48:00,
2013-01-11 20:53:00,61.9,56.0,28.79,WNW,293,0.0,0.0,81,0.00,,,0.00,WSDL version 420,2013-01-12 02:53:00,
2013-01-11 20:58:00,62.0,56.2,28.79,NW,309,0.0,0.0,81,0.00,,,0.00,WSDL version 420,2013-01-12 02:58:00,
2013-01-11 21:03:00,62.2,56.3,28.79,SW,218,0.0,1.1,81,0.00,,,0.00,WSDL version 420,2013-01-12 03:03:00,
2013-01-11 21:08:00,62.3,56.4,28.79,SW,225,0.0,1.1,81,0.00,,,0.00,WSDL version 420,2013-01-12 03:08:00,
2013-01-11 21:13:00,62.5,56.8,28.79,SSE,158,0.0,0.9,81,0.00,,,0.00,WSDL version 420,2013-01-12 03:13:00,
2013-01-11 21:18:00,62.6,56.9,28.79,South,175,0.0,1.3,82,0.00,,,0.00,WSDL version 420,2013-01-12 03:18:00,
2013-01-11 21:23:00,62.8,56.9,28.79,SSE,158,0.9,1.3,81,0.00,,,0.00,WSDL version 420,2013-01-12 03:23:00,
2013-01-11 21:28:00,63.0,57.4,28.79,SSE,158,0.0,2.5,82,0.00,,,0.00,WSDL version 420,2013-01-12 03:28:00,
2013-01-11 21:33:00,63.1,57.8,28.79,East,93,0.2,2.5,83,0.00,,,0.00,WSDL version 420,2013-01-12 03:33:00,
2013-01-11 21:38:00,63.5,58.5,28.79,SSW,213,0.7,2.9,84,0.00,,,0.00,WSDL version 420,2013-01-12 03:38:00,
2013-01-11 21:43:00,63.8,58.7,28.79,South,172,0.1,2.9,83,0.00,,,0.00,WSDL version 420,2013-01-12 03:43:00,
2013-01-11 21:48:00,64.0,58.7,28.79,SW,236,1.1,2.2,83,0.00,,,0.00,WSDL version 420,2013-01-12 03:48:00,
2013-01-11 21:53:00,64.3,58.9,28.79,South,180,1.0,2.5,82,0.00,,,0.00,WSDL version 420,2013-01-12 03:53:00,
2013-01-11 21:58:00,64.6,59.1,28.79,SSE,163,1.4,2.9,82,0.00,,,0.00,WSDL version 420,2013-01-12 03:58:00,
2013-01-11 22:03:00,64.8,59.5,28.79,SW,228,0.8,3.4,82,0.00,,,0.00,WSDL version 420,2013-01-12 04:03:00,
2013-01-11 22:08:00,64.9,59.3,28.79,SSW,205,1.1,3.4,82,0.00,,,0.00,WSDL version 420,2013-01-12 04:08:00,
2013-01-11 22:13:00,65.1,59.9,28.79,South,180,1.1,2.9,83,0.00,,,0.00,WSDL version 420,2013-01-12 04:13:00,
2013-01-11 22:18:00,65.2,60.2,28.79,SSE,155,0.5,2.7,83,0.00,,,0.00,WSDL version 420,2013-01-12 04:18:00,
2013-01-11 22:23:00,65.3,60.4,28.79,SSE,167,0.8,2.2,84,0.00,,,0.00,WSDL version 420,2013-01-12 04:23:00,
2013-01-11 22:28:00,65.5,60.7,28.79,SW,222,0.9,1.6,84,0.00,,,0.00,WSDL version 420,2013-01-12 04:28:00,
2013-01-11 22:33:00,65.5,60.7,28.79,NNE,28,0.4,2.9,84,0.00,,,0.00,WSDL version 420,2013-01-12 04:33:00,
2013-01-11 22:38:00,65.5,60.9,28.79,SW,236,0.3,2.9,84,0.00,,,0.00,WSDL version 420,2013-01-12 04:38:00,
2013-01-11 22:43:00,65.7,61.2,28.82,South,188,0.4,2.5,86,0.00,,,0.00,WSDL version 420,2013-01-12 04:43:00,
2013-01-11 22:48:00,65.7,61.1,28.82,SSE,163,1.0,2.9,84,0.00,,,0.00,WSDL version 420,2013-01-12 04:48:00,
2013-01-11 22:53:00,65.7,61.1,28.82,East,83,1.0,2.9,86,0.00,,,0.00,WSDL version 420,2013-01-12 04:53:00,
2013-01-11 22:58:00,65.8,61.5,28.79,NE,55,1.0,2.7,86,0.00,,,0.00,WSDL version 420,2013-01-12 04:58:00,
2013-01-11 23:03:00,65.8,61.8,28.79,East,88,0.1,2.7,87,0.00,,,0.00,WSDL version 420,2013-01-12 05:03:00,
2013-01-11 23:08:00,65.8,61.8,28.79,SSE,149,0.6,2.2,87,0.00,,,0.00,WSDL version 420,2013-01-12 05:08:00,
2013-01-11 23:13:00,65.7,61.6,28.82,WNW,300,0.0,1.6,87,0.00,,,0.00,WSDL version 420,2013-01-12 05:13:00,
2013-01-11 23:18:00,65.7,61.5,28.82,WSW,250,0.0,1.6,86,0.00,,,0.00,WSDL version 420,2013-01-12 05:18:00,
2013-01-11 23:23:00,65.6,61.3,28.82,SW,231,0.0,0.0,87,0.00,,,0.00,WSDL version 420,2013-01-12 05:23:00,
2013-01-11 23:28:00,65.7,61.6,28.79,SSW,197,0.1,2.0,87,0.00,,,0.00,WSDL version 420,2013-01-12 05:28:00,
2013-01-11 23:33:00,65.7,61.5,28.79,WNW,302,0.5,2.7,86,0.00,,,0.00,WSDL version 420,2013-01-12 05:33:00,
2013-01-11 23:38:00,65.7,61.3,28.79,NNW,338,0.0,2.7,87,0.00,,,0.00,WSDL version 420,2013-01-12 05:38:00,
2013-01-11 23:43:00,65.6,61.5,28.82,NNW,338,0.0,0.9,87,0.00,,,0.00,WSDL version 420,2013-01-12 05:43:00,
2013-01-11 23:48:00,65.7,61.6,28.82,West,265,0.0,1.1,87,0.00,,,0.00,WSDL version 420,2013-01-12 05:48:00,
2013-01-11 23:53:00,65.7,61.6,28.82,West,276,0.0,1.1,87,0.00,,,0.00,WSDL version 420,2013-01-12 05:53:00,
2013-01-11 23:58:00,65.7,61.7,28.79,SSW,208,0.0,1.1,88,0.00,,,0.00,WSDL version 420,2013-01-12 05:58:00,